When you browse on this site, cookies collect data to enhance your experience and personalize the content and advertising you see.
Visit our Privacy Policy to learn more. By continuing to use the site, you agree to this use of cookies and data.
  • In Italy
  • List of Countries
  • For 7 days
  • Water Temperature
  • Satellite Maps
  • Weather Map
  • Weather Widgets
  • user-avatar
    Login

    Hourly Weather Wavre

    Today, 21 April, Sunday

    Time Temperature Precipitation Wind Pressure Humidity
    00:00 +13°C° 0 mm 3 mps 762 mmHg 64%
    01:00 +13°C° 0 mm 3 mps 762 mmHg 66%
    02:00 +13°C° 0 mm 2 mps 761 mmHg 68%
    03:00 +12°C° 0 mm 2 mps 761 mmHg 70%
    04:00 +13°C° 0 mm 2 mps 761 mmHg 71%
    05:00 +13°C° 0 mm 2 mps 761 mmHg 72%
    06:00 +13°C° 0 mm 2 mps 761 mmHg 69%
    07:00 +15°C° 0 mm 2 mps 760 mmHg 65%
    08:00 +17°C° 0 mm 2 mps 760 mmHg 61%
    09:00 +19°C° 0 mm 2 mps 759 mmHg 56%
    10:00 +21°C° 0 mm 3 mps 759 mmHg 52%
    11:00 +22°C° 0 mm 3 mps 759 mmHg 48%
    12:00 +24°C° 0 mm 3 mps 758 mmHg 43%
    13:00 +25°C° 0 mm 3 mps 758 mmHg 43%
    14:00 +25°C° 0 mm 3 mps 757 mmHg 43%
    15:00 +25°C° 0 mm 3 mps 757 mmHg 42%
    16:00 +24°C° 0 mm 3 mps 756 mmHg 48%
    17:00 +21°C° 0 mm 3 mps 756 mmHg 53%
    18:00 +20°C° 0 mm 3 mps 756 mmHg 58%
    19:00 +18°C° 0 mm 3 mps 756 mmHg 59%
    20:00 +17°C° 0 mm 3 mps 755 mmHg 59%
    21:00 +16°C° 0 mm 3 mps 755 mmHg 60%
    22:00 +15°C° 0 mm 2 mps 755 mmHg 62%
    23:00 +14°C° 0 mm 2 mps 755 mmHg 64%

    Tomorrow, 22 April, Monday

    Time Temperature Precipitation Wind Pressure Humidity
    00:00 +14°C° 0 mm 2 mps 755 mmHg 66%
    01:00 +13°C° 0 mm 2 mps 754 mmHg 65%
    02:00 +13°C° 0 mm 2 mps 753 mmHg 64%
    03:00 +13°C° 0 mm 2 mps 753 mmHg 63%
    04:00 +13°C° 0 mm 2 mps 753 mmHg 64%
    05:00 +13°C° 0 mm 2 mps 752 mmHg 65%
    06:00 +13°C° 0 mm 2 mps 752 mmHg 66%
    07:00 +14°C° 0 mm 3 mps 752 mmHg 61%
    08:00 +18°C° 0 mm 3 mps 752 mmHg 57%
    09:00 +20°C° 0 mm 4 mps 751 mmHg 52%
    10:00 +21°C° 0 mm 4 mps 751 mmHg 49%
    11:00 +22°C° 0 mm 4 mps 750 mmHg 45%
    12:00 +23°C° 0 mm 4 mps 750 mmHg 41%
    13:00 +23°C° 0 mm 4 mps 749 mmHg 42%
    14:00 +23°C° 0 mm 4 mps 749 mmHg 43%
    15:00 +23°C° 0 mm 4 mps 748 mmHg 44%
    16:00 +22°C° 0 mm 4 mps 748 mmHg 49%
    17:00 +21°C° 0 mm 4 mps 747 mmHg 55%
    18:00 +19°C° 0 mm 4 mps 747 mmHg 60%
    19:00 +18°C° 0 mm 4 mps 747 mmHg 61%
    20:00 +17°C° 0 mm 4 mps 747 mmHg 62%
    21:00 +15°C° 0 mm 4 mps 747 mmHg 63%
    22:00 +14°C° 0 mm 4 mps 747 mmHg 64%
    23:00 +13°C° 0 mm 4 mps 747 mmHg 65%

    Day after tomorrow, 23 April, Tuesday

    Time Temperature Precipitation Wind Pressure Humidity
    00:00 +12°C° 0 mm 4 mps 746 mmHg 66%
    01:00 +12°C° 0 mm 4 mps 746 mmHg 66%
    02:00 +11°C° 0 mm 4 mps 746 mmHg 67%
    03:00 +10°C° 0 mm 3 mps 745 mmHg 67%
    04:00 +10°C° 0 mm 4 mps 745 mmHg 68%
    05:00 +10°C° 0 mm 4 mps 745 mmHg 69%
    06:00 +10°C° 0 mm 4 mps 745 mmHg 70%
    07:00 +12°C° 0 mm 4 mps 745 mmHg 67%
    08:00 +14°C° 0 mm 4 mps 745 mmHg 64%
    09:00 +15°C° 0 mm 4 mps 745 mmHg 62%
    10:00 +18°C° 0 mm 4 mps 744 mmHg 60%
    11:00 +19°C° 0 mm 4 mps 744 mmHg 58%
    12:00 +20°C° 0 mm 4 mps 744 mmHg 56%
    13:00 +21°C° 0 mm 4 mps 743 mmHg 55%
    14:00 +21°C° 0 mm 4 mps 743 mmHg 55%
    15:00 +22°C° 0 mm 3 mps 743 mmHg 54%
    16:00 +21°C° 0 mm 3 mps 743 mmHg 59%
    17:00 +20°C° 0 mm 3 mps 743 mmHg 64%
    18:00 +19°C° 0 mm 3 mps 743 mmHg 69%
    19:00 +18°C° 0 mm 3 mps 743 mmHg 73%
    20:00 +17°C° 0 mm 3 mps 743 mmHg 76%
    21:00 +14°C° 0 mm 3 mps 744 mmHg 80%
    22:00 +14°C° 0 mm 3 mps 744 mmHg 82%
    23:00 +14°C° 0 mm 2 mps 744 mmHg 85%

    24 April, Wednesday

    Time Temperature Precipitation Wind Pressure Humidity
    00:00 +14°C° 0 mm 2 mps 744 mmHg 87%
    01:00 +13°C° 0 mm 2 mps 744 mmHg 89%
    02:00 +13°C° 0 mm 2 mps 744 mmHg 90%
    03:00 +13°C° 0 mm 2 mps 744 mmHg 92%
    04:00 +13°C° 0.1 mm 3 mps 744 mmHg 91%
    05:00 +13°C° 0.1 mm 3 mps 744 mmHg 90%
    06:00 +14°C° 0.1 mm 3 mps 744 mmHg 89%
    07:00 +17°C° 0.3 mm 4 mps 744 mmHg 83%
    08:00 +17°C° 0.3 mm 5 mps 745 mmHg 78%
    09:00 +20°C° 0.3 mm 5 mps 745 mmHg 72%
    10:00 +20°C° 0.5 mm 6 mps 745 mmHg 68%
    11:00 +21°C° 0.5 mm 6 mps 745 mmHg 65%
    12:00 +22°C° 0.5 mm 6 mps 745 mmHg 61%
    13:00 +22°C° 0 mm 6 mps 745 mmHg 59%
    14:00 +23°C° 0 mm 6 mps 745 mmHg 56%
    15:00 +23°C° 0 mm 6 mps 745 mmHg 54%
    16:00 +22°C° 0.1 mm 6 mps 745 mmHg 59%
    17:00 +21°C° 0.1 mm 5 mps 745 mmHg 65%
    18:00 +20°C° 0.1 mm 5 mps 745 mmHg 70%
    19:00 +19°C° 0 mm 5 mps 746 mmHg 72%
    20:00 +17°C° 0 mm 5 mps 746 mmHg 73%
    21:00 +16°C° 0 mm 5 mps 747 mmHg 75%
    22:00 +14°C° 0.9 mm 5 mps 747 mmHg 79%
    23:00 +13°C° 0.9 mm 5 mps 748 mmHg 83%

    25 April, Thursday

    Time Temperature Precipitation Wind Pressure Humidity
    00:00 +12°C° 0.9 mm 4 mps 748 mmHg 87%
    01:00 +11°C° 0 mm 4 mps 748 mmHg 88%
    02:00 +11°C° 0 mm 3 mps 748 mmHg 89%
    03:00 +10°C° 0 mm 2 mps 748 mmHg 90%
    04:00 +10°C° 0 mm 3 mps 748 mmHg 88%
    05:00 +10°C° 0 mm 3 mps 748 mmHg 86%
    06:00 +10°C° 0 mm 4 mps 748 mmHg 84%
    07:00 +12°C° 0 mm 5 mps 748 mmHg 77%
    08:00 +14°C° 0 mm 6 mps 748 mmHg 70%
    09:00 +16°C° 0 mm 6 mps 748 mmHg 63%
    10:00 +17°C° 0 mm 7 mps 748 mmHg 60%
    11:00 +18°C° 0 mm 7 mps 747 mmHg 57%
    12:00 +20°C° 0 mm 8 mps 747 mmHg 54%
    13:00 +18°C° 0.3 mm 8 mps 747 mmHg 60%
    14:00 +17°C° 0.3 mm 7 mps 747 mmHg 66%
    15:00 +15°C° 0.3 mm 7 mps 747 mmHg 72%
    16:00 +14°C° 0.6 mm 7 mps 747 mmHg 76%
    17:00 +13°C° 0.6 mm 6 mps 747 mmHg 81%
    18:00 +10°C° 0.6 mm 6 mps 748 mmHg 85%
    19:00 +10°C° 0.1 mm 6 mps 748 mmHg 84%
    20:00 +10°C° 0.1 mm 6 mps 749 mmHg 84%
    21:00 +9°C° 0.1 mm 5 mps 749 mmHg 83%
    22:00 +9°C° 0 mm 5 mps 749 mmHg 83%
    23:00 +8°C° 0 mm 5 mps 750 mmHg 84%

    26 April, Friday

    Time Temperature Precipitation Wind Pressure Humidity
    00:00 +8°C° 0 mm 5 mps 750 mmHg 84%
    01:00 +8°C° 0 mm 5 mps 750 mmHg 84%
    02:00 +7°C° 0 mm 5 mps 750 mmHg 85%
    03:00 +7°C° 0 mm 4 mps 751 mmHg 85%
    04:00 +7°C° 0 mm 5 mps 751 mmHg 85%
    05:00 +7°C° 0 mm 5 mps 751 mmHg 85%
    06:00 +7°C° 0 mm 5 mps 752 mmHg 85%
    07:00 +8°C° 0 mm 6 mps 752 mmHg 80%
    08:00 +9°C° 0 mm 6 mps 753 mmHg 75%
    09:00 +10°C° 0 mm 6 mps 753 mmHg 69%
    10:00 +11°C° 0.3 mm 6 mps 753 mmHg 66%
    11:00 +13°C° 0.3 mm 6 mps 753 mmHg 63%
    12:00 +14°C° 0.3 mm 6 mps 753 mmHg 60%
    13:00 +14°C° 0.2 mm 6 mps 753 mmHg 59%
    14:00 +14°C° 0.2 mm 6 mps 754 mmHg 58%
    15:00 +14°C° 0.2 mm 6 mps 754 mmHg 58%
    16:00 +13°C° 0.1 mm 5 mps 755 mmHg 63%
    17:00 +12°C° 0.1 mm 4 mps 755 mmHg 68%
    18:00 +12°C° 0.1 mm 4 mps 756 mmHg 73%
    19:00 +11°C° 0 mm 4 mps 756 mmHg 76%
    20:00 +10°C° 0 mm 4 mps 757 mmHg 79%
    21:00 +8°C° 0 mm 4 mps 757 mmHg 81%
    22:00 +7°C° 0 mm 4 mps 758 mmHg 83%
    23:00 +7°C° 0 mm 4 mps 758 mmHg 85%
    Show more